Tracking 23726 objects as of 22-Sep-2021
HD Live streaming from Space Station
objects crossing your sky now

ZHEDA PIXING 1C

Track ZHEDA PIXING 1C now!
10-day predictions
ZHEDA PIXING 1C is classified as:


NORAD ID: 37167
Int'l Code: 2010-047C
Perigee: 617.3 km
Apogee: 649.3 km
Inclination: 97.8 °
Period: 97.2 minutes
Semi major axis: 7004 km
RCS: 0.149 m2 (medium)
Launch date: September 22, 2010
Source: People's Republic of China (PRC)
Launch site: Jiuquan Satellite Launch Center, China (JSC)
aabbcc
Your satellite tracking list
Your tracking list is empty




NASA's NSSDC Master Catalog

Two Line Element Set (TLE):
1 37167U 10047C   21265.55951644  .00000199  00000-0  32211-4 0  9993
2 37167  97.7537 241.9423 0022873 184.0272 176.0752 14.81002547594148
Source of the keplerian elements: AFSPC